| time (UTC) | temp F | wind direction | speed MPH | gust MPH | rain 1hr in | rain 24hr in | rain mn in | humidity % | barometer mb |
| 20260504081552 | 41 | 350 | 2.0 | 4.0 | 0.00 | 0.00 | 0.00 | 71 | 1009.0 |
| 20260504050108 | 47 | 350 | 1.0 | 5.0 | 0.00 | 0.00 | 0.00 | 62 | 1010.0 |
| 20260504044557 | 48 | 350 | 1.0 | 3.0 | 0.00 | 0.00 | 0.00 | 59 | 1010.1 |
| 20260504043055 | 49 | 350 | 1.0 | 4.0 | 0.00 | 0.00 | 0.00 | 57 | 1010.2 |
| 20260504041555 | 50 | 0 | 0.0 | 4.0 | 0.00 | 0.00 | 0.00 | 55 | 1010.2 |
| 20260504040057 | 52 | 350 | 2.0 | 3.0 | 0.00 | 0.00 | 0.00 | 52 | 1010.2 |
| 20260504034552 | 53 | 0 | 0.0 | 1.0 | 0.00 | 0.00 | 0.00 | 50 | 1010.1 |
| 20260504033053 | 53 | 0 | 1.0 | 4.0 | 0.00 | 0.00 | 0.00 | 49 | 1010.2 |
| 20260504031555 | 56 | 350 | 1.0 | 4.0 | 0.00 | 0.00 | 0.00 | 45 | 1010.1 |
| 20260504030055 | 58 | 37 | 1.0 | 3.0 | 0.00 | 0.00 | 0.00 | 40 | 1010.2 |
| 20260504024609 | 58 | 37 | 1.0 | 4.0 | 0.00 | 0.00 | 0.00 | 39 | 1010.1 |
| 20260504023054 | 59 | 34 | 2.0 | 4.0 | 0.00 | 0.00 | 0.00 | 40 | 1010.0 |
| 20260504021552 | 61 | 28 | 1.0 | 3.0 | 0.00 | 0.00 | 0.00 | 37 | 1010.1 |
| 20260504020057 | 62 | 28 | 1.0 | 4.0 | 0.00 | 0.00 | 0.00 | 35 | 1010.1 |
| 20260504014601 | 63 | 28 | 1.0 | 4.0 | 0.00 | 0.00 | 0.00 | 35 | 1010.0 |
| 20260504013056 | 65 | 23 | 2.0 | 5.0 | 0.00 | 0.00 | 0.00 | 32 | 1010.2 |
| 20260504011554 | 66 | 28 | 1.0 | 3.0 | 0.00 | 0.00 | 0.00 | 31 | 1010.2 |
| 20260504010104 | 66 | 355 | 3.0 | 6.0 | 0.00 | 0.00 | 0.00 | 30 | 1010.4 |
| 20260504004553 | 66 | 345 | 3.0 | 8.0 | 0.00 | 0.00 | 0.00 | 29 | 1010.6 |
| 20260504003059 | 66 | 345 | 5.0 | 9.0 | 0.00 | 0.00 | 0.00 | 29 | 1010.6 |
| 20260504001551 | 67 | 345 | 3.0 | 10.0 | 0.00 | 0.00 | 0.00 | 29 | 1010.8 |
| 20260504000134 | 67 | 9 | 3.0 | 6.0 | 0.00 | 0.00 | 0.00 | 28 | 1010.8 |
| 20260503234559 | 67 | 345 | 4.0 | 9.0 | 0.00 | 0.00 | 0.00 | 29 | 1011.0 |
| 20260503233051 | 66 | 329 | 6.0 | 13.0 | 0.00 | 0.00 | 0.00 | 29 | 1011.1 |
| 20260503231552 | 67 | 16 | 6.0 | 10.0 | 0.00 | 0.00 | 0.00 | 30 | 1011.3 |
| 20260503230056 | 67 | 345 | 5.0 | 13.0 | 0.00 | 0.00 | 0.00 | 30 | 1011.3 |
| 20260503224554 | 67 | 342 | 6.0 | 14.0 | 0.00 | 0.00 | 0.00 | 29 | 1011.4 |
| 20260503223055 | 66 | 355 | 4.0 | 12.0 | 0.00 | 0.00 | 0.00 | 30 | 1011.5 |
| 20260503221555 | 67 | 345 | 6.0 | 11.0 | 0.00 | 0.00 | 0.00 | 31 | 1011.6 |
| 20260503220057 | 67 | 345 | 6.0 | 15.0 | 0.00 | 0.00 | 0.00 | 30 | 1011.7 |
| 20260503214555 | 67 | 285 | 9.0 | 16.0 | 0.00 | 0.00 | 0.00 | 30 | 1011.8 |
| 20260503213100 | 66 | 22 | 6.0 | 13.0 | 0.00 | 0.00 | 0.00 | 31 | 1012.0 |
| 20260503211615 | 66 | 26 | 7.0 | 14.0 | 0.00 | 0.00 | 0.00 | 32 | 1012.1 |
| 20260503210056 | 65 | 26 | 7.0 | 16.0 | 0.00 | 0.00 | 0.00 | 38 | 1012.3 |
| 20260503204558 | 62 | 22 | 12.0 | 34.0 | 0.00 | 0.00 | 0.00 | 38 | 1012.5 |
| 20260503203114 | 70 | 319 | 10.0 | 23.0 | 0.00 | 0.00 | 0.00 | 24 | 1012.2 |
| 20260503201558 | 69 | 296 | 8.0 | 18.0 | 0.00 | 0.00 | 0.00 | 25 | 1012.1 |
| 20260503200057 | 67 | 335 | 6.0 | 12.0 | 0.00 | 0.00 | 0.00 | 32 | 1012.2 |
| 20260503194558 | 66 | 310 | 4.0 | 15.0 | 0.00 | 0.00 | 0.00 | 31 | 1012.5 |
| 20260503193059 | 66 | 296 | 5.0 | 12.0 | 0.00 | 0.00 | 0.00 | 32 | 1012.5 |
| 20260503191559 | 66 | 251 | 7.0 | 14.0 | 0.00 | 0.00 | 0.00 | 31 | 1013.1 |
| 20260503190055 | 65 | 217 | 4.0 | 15.0 | 0.00 | 0.00 | 0.00 | 32 | 1013.4 |
| 20260503184553 | 65 | 102 | 2.0 | 9.0 | 0.00 | 0.00 | 0.00 | 33 | 1013.8 |
| 20260503183049 | 64 | 175 | 4.0 | 10.0 | 0.00 | 0.00 | 0.00 | 34 | 1014.0 |
| 20260503181602 | 64 | 242 | 3.0 | 10.0 | 0.00 | 0.00 | 0.00 | 34 | 1014.2 |
| 20260503180059 | 63 | 175 | 2.0 | 10.0 | 0.00 | 0.00 | 0.00 | 36 | 1014.5 |
| 20260503174551 | 63 | 0 | 1.0 | 6.0 | 0.00 | 0.00 | 0.00 | 38 | 1014.7 |
| 20260503173100 | 62 | 234 | 3.0 | 7.0 | 0.00 | 0.00 | 0.00 | 38 | 1015.0 |
| 20260503171554 | 61 | 225 | 4.0 | 10.0 | 0.00 | 0.00 | 0.00 | 40 | 1015.3 |